TimeEDT,TemperatureF,Dew PointF,Humidity,Sea Level PressureIn,VisibilityMPH,Wind Direction,Wind SpeedMPH,Gust SpeedMPH,PrecipitationIn,Events,Conditions,WindDirDegrees,DateUTC
12:05 AM,68.0,68.0,100,29.83,1.2,South,3.5,-,0.06,Rain,Heavy Rain,180,2013-09-21 04:05:00
12:27 AM,68.0,68.0,100,29.83,1.8,SSW,5.8,-,0.21,Rain,Rain,210,2013-09-21 04:27:00
12:36 AM,68.0,68.0,100,29.82,2.0,SSW,5.8,-,0.24,Rain,Rain,210,2013-09-21 04:36:00
12:43 AM,68.0,68.0,100,29.82,2.5,SSW,4.6,-,0.25,Rain,Light Rain,200,2013-09-21 04:43:00
12:56 AM,68.0,68.0,100,29.79,2.0,South,4.6,-,0.30,Rain,Rain,190,2013-09-21 04:56:00
1:11 AM,68.0,68.0,100,29.81,1.2,South,3.5,-,0.10,Rain,Heavy Rain,190,2013-09-21 05:11:00
1:16 AM,68.0,68.0,100,29.81,1.5,South,3.5,-,0.11,Rain,Rain,190,2013-09-21 05:16:00
1:22 AM,68.0,68.0,100,29.80,2.5,SSW,4.6,-,0.12,Rain,Rain,200,2013-09-21 05:22:00
1:56 AM,66.9,66.9,100,29.78,1.5,Variable,6.9,-,0.28,Rain,Heavy Rain,0,2013-09-21 05:56:00
2:15 AM,66.2,66.2,100,29.80,2.0,West,8.1,-,0.10,Rain,Rain,260,2013-09-21 06:15:00
2:34 AM,66.2,66.2,100,29.80,2.0,SW,5.8,-,0.21,Rain,Heavy Rain,230,2013-09-21 06:34:00
2:56 AM,65.8,65.8,100,29.76,2.5,SSW,3.5,-,0.27,Rain,Light Rain,210,2013-09-21 06:56:00
3:03 AM,66.2,66.2,100,29.79,4.0,Variable,4.6,-,0.01,Rain,Light Rain,0,2013-09-21 07:03:00
3:12 AM,66.2,66.2,100,29.79,3.0,SW,5.8,-,0.02,Rain,Light Rain,220,2013-09-21 07:12:00
3:38 AM,66.2,66.2,100,29.78,3.0,WSW,6.9,-,0.06,Rain,Rain,250,2013-09-21 07:38:00
3:56 AM,65.8,65.8,100,29.74,4.0,SW,4.6,-,0.08,Rain,Light Rain,220,2013-09-21 07:56:00
4:56 AM,65.8,65.8,100,29.74,4.0,SW,5.8,-,0.03,Rain,Light Rain,220,2013-09-21 08:56:00
5:45 AM,66.2,66.2,100,29.76,4.0,SW,4.6,-,0.05,Rain,Light Rain,220,2013-09-21 09:45:00
5:56 AM,65.8,65.8,100,29.73,4.0,SSW,4.6,-,0.06,Rain,Light Rain,200,2013-09-21 09:56:00
6:18 AM,64.4,64.4,100,29.75,4.0,West,8.1,-,0.02,Rain,Light Rain,270,2013-09-21 10:18:00
6:29 AM,64.4,64.4,100,29.75,3.0,Variable,5.8,-,0.04,Rain,Light Rain,0,2013-09-21 10:29:00
6:33 AM,64.4,64.4,100,29.75,4.0,Variable,6.9,-,0.04,Rain,Light Rain,0,2013-09-21 10:33:00
6:56 AM,64.9,63.9,96,29.72,5.0,Calm,Calm,-,0.05,Rain,Light Rain,0,2013-09-21 10:56:00
7:12 AM,64.4,64.4,100,29.73,4.0,Calm,Calm,-,0.01,Rain,Light Rain,0,2013-09-21 11:12:00
7:29 AM,64.4,64.4,100,29.72,5.0,Calm,Calm,-,0.01,Rain,Light Rain,0,2013-09-21 11:29:00
7:45 AM,64.4,64.4,100,29.75,5.0,West,9.2,-,0.01,Rain,Light Rain,280,2013-09-21 11:45:00
7:56 AM,63.9,63.9,100,29.74,6.0,WNW,10.4,-,0.01,Rain,Light Rain,300,2013-09-21 11:56:00
8:56 AM,61.0,59.9,96,29.74,5.0,NW,11.5,-,0.00,,Overcast,320,2013-09-21 12:56:00
9:56 AM,59.9,59.0,97,29.77,5.0,NW,8.1,-,N/A,,Overcast,310,2013-09-21 13:56:00
10:21 AM,60.8,59.0,94,29.78,6.0,NW,12.7,-,N/A,,Mostly Cloudy,320,2013-09-21 14:21:00
10:36 AM,60.8,60.8,100,29.79,5.0,Variable,6.9,-,N/A,,Mostly Cloudy,0,2013-09-21 14:36:00
10:56 AM,61.0,59.9,96,29.78,5.0,WNW,10.4,-,N/A,,Mostly Cloudy,300,2013-09-21 14:56:00
11:09 AM,62.6,60.8,94,29.79,6.0,WNW,9.2,-,N/A,,Mostly Cloudy,290,2013-09-21 15:09:00
11:46 AM,64.4,60.8,88,29.80,6.0,WNW,12.7,-,N/A,,Mostly Cloudy,300,2013-09-21 15:46:00
11:56 AM,63.9,59.0,84,29.79,6.0,NW,11.5,-,N/A,,Haze,320,2013-09-21 15:56:00
12:56 PM,65.8,56.8,73,29.78,7.0,NNW,13.8,-,N/A,,Mostly Cloudy,340,2013-09-21 16:56:00
1:13 PM,69.8,57.2,64,29.80,7.0,WNW,10.4,-,N/A,,Scattered Clouds,300,2013-09-21 17:13:00
1:56 PM,70.0,54.9,59,29.78,7.0,WNW,11.5,19.6,N/A,,Clear,300,2013-09-21 17:56:00
2:56 PM,72.9,52.0,48,29.77,8.0,WNW,12.7,17.3,N/A,,Clear,300,2013-09-21 18:56:00
3:56 PM,70.9,52.9,53,29.78,8.0,NW,15.0,-,N/A,,Partly Cloudy,310,2013-09-21 19:56:00
4:56 PM,70.0,54.0,57,29.78,7.0,WNW,11.5,-,N/A,,Overcast,300,2013-09-21 20:56:00
5:56 PM,70.0,50.9,51,29.79,8.0,WNW,9.2,-,N/A,,Scattered Clouds,300,2013-09-21 21:56:00
6:56 PM,66.9,50.9,56,29.81,8.0,NW,10.4,-,N/A,,Partly Cloudy,320,2013-09-21 22:56:00
7:56 PM,61.0,52.0,72,29.82,9.0,SSW,3.5,-,N/A,,Clear,210,2013-09-21 23:56:00
8:56 PM,59.0,50.0,72,29.85,9.0,SW,4.6,-,N/A,,Clear,230,2013-09-22 00:56:00
9:56 PM,57.9,48.9,72,29.86,9.0,Variable,6.9,-,N/A,,Clear,0,2013-09-22 01:56:00
10:56 PM,55.9,48.9,77,29.89,9.0,NNW,9.2,-,N/A,,Clear,340,2013-09-22 02:56:00
11:56 PM,54.0,47.8,80,29.90,9.0,Variable,6.9,-,N/A,,Clear,0,2013-09-22 03:56:00